Weather History for 10637 - February, 2014

Change the Weather History Date:

Sunday, February 16, 2014

  Actual Average Record
Temperature  
Mean Temperature 43 °F -  
Max Temperature 49 °F 46 °F - ()
Min Temperature 35 °F 33 °F - ()
Degree Days  
Heating Degree Days 22    
Moisture  
Dew Point 39 °F    
Average Humidity 81    
Maximum Humidity 100    
Minimum Humidity 61    
Precipitation  
Precipitation 0.12 in - - ()
Sea Level Pressure  
Sea Level Pressure 29.86 in    
Wind  
Wind Speed 13 mph ()    
Max Wind Speed 20 mph    
Max Gust Speed 31 mph    
Visibility 6.6 miles    
Events Fog , Rain    
T = Trace of Precipitation, MM = Missing Value Source: Averaged Metar Reports

Daily Weather History Graph

Daily Weather History Graph

Search for Another Location

Airport or City:

Trip Planner

Search our weather history database for the weather conditions in past years. The results will help you decide how hot, cold, wet, or windy it might be!

Date:

Astronomy

Feb. 16, 2014 Rise Set
Actual Time 7:34 AM CET 5:45 PM CET
Civil Twilight 7:01 AM CET 6:18 PM CET
Nautical Twilight 6:23 AM CET 6:56 PM CET
Astronomical Twilight 5:46 AM CET 7:34 PM CET
Moon 7:41 PM CET (2/16) 7:44 AM CET (2/16)
Length of Visible Light 11h 17m
Length of Day
10h 10m
Full, 98% of the Moon is Illuminated
Feb 16
Full
Feb 22
Last Quarter
Mar 1
New
Mar 8
First Quarter
Mar 16
Full

Hourly Weather History & Observations

Time (CET) Temp. Windchill Dew Point Humidity Pressure Visibility Wind Dir Wind Speed Gust Speed Precip Events Conditions
12:00 AM 44 °F - 40 °F 81% 29.77 in 28 mi SSW 15.7 mph - -   Partly Cloudy
12:20 AM 44.6 °F 37.8 °F 41.0 °F 87% 29.74 in 6.2 mi SSW 15.0 mph - N/A   Mostly Cloudy
12:50 AM 44.6 °F 38.1 °F 39.2 °F 81% 29.77 in 6.2 mi SSW 13.8 mph - N/A   Mostly Cloudy
1:00 AM 45 °F - 40 °F 75% 29.78 in 25 mi SSW 13.4 mph - -   Mostly Cloudy
1:20 AM 44.6 °F 37.4 °F 39.2 °F 81% 29.77 in 6.2 mi South 16.1 mph - N/A   Mostly Cloudy
1:50 AM 44.6 °F 37.8 °F 41.0 °F 87% 29.77 in - SSW 15.0 mph - N/A Rain Rain Showers
2:00 AM 45 °F - 40 °F 75% 29.79 in 3 mi SSW 15.7 mph - - Rain Heavy Rain Showers
2:20 AM 44.6 °F 38.1 °F 41.0 °F 87% 29.77 in 6.2 mi SSW 13.8 mph - N/A   Mostly Cloudy
2:50 AM 44.6 °F 37.8 °F 39.2 °F 81% 29.77 in 6.2 mi SSW 15.0 mph - N/A   Mostly Cloudy
3:00 AM 44 °F - 39 °F 78% 29.78 in 25 mi SSW 15.7 mph - - Rain Light Rain Showers
3:20 AM 42.8 °F 35.1 °F 39.2 °F 87% 29.77 in 6.2 mi SSW 16.1 mph - N/A   Mostly Cloudy
3:50 AM 42.8 °F 35.8 °F 39.2 °F 87% 29.77 in 6.2 mi South 13.8 mph - N/A   Mostly Cloudy
4:20 AM 42.8 °F 35.4 °F 39.2 °F 87% 29.80 in 6.2 mi SSW 15.0 mph - N/A   Mostly Cloudy
4:50 AM 42.8 °F 36.2 °F 39.2 °F 87% 29.80 in 6.2 mi South 12.7 mph - N/A   Mostly Cloudy
5:00 AM 44 °F - 39 °F 76% 29.81 in 25 mi South 13.4 mph - -   Mostly Cloudy
5:20 AM 42.8 °F 34.5 °F 39.2 °F 87% 29.80 in 6.2 mi SSW 18.4 mph - N/A   Mostly Cloudy
5:50 AM 42.8 °F 37.0 °F 39.2 °F 87% 29.80 in 6.2 mi SSW 10.4 mph - N/A   Mostly Cloudy
6:00 AM 43 °F - 39 °F 82% 29.82 in 9 mi SSW 11.2 mph - - Rain Light Rain Showers
6:20 AM 44.6 °F 38.1 °F 39.2 °F 81% 29.80 in 6.2 mi SSW 13.8 mph 26.5 mph N/A   Mostly Cloudy
6:50 AM 42.8 °F 36.2 °F 39.2 °F 87% 29.80 in 6.2 mi SW 12.7 mph - N/A Rain Light Rain Showers
7:00 AM 43 °F - 40 °F 84% 29.83 in 7 mi SW 11.2 mph - - Rain Light Rain Showers
7:20 AM 42.8 °F 35.8 °F 39.2 °F 87% 29.80 in 4.3 mi SW 13.8 mph - N/A Rain Light Rain Showers
7:50 AM 42.8 °F 35.8 °F 41.0 °F 93% 29.83 in 6.2 mi SW 13.8 mph - N/A Rain Light Rain Showers
8:00 AM 43 °F - 40 °F 85% 29.84 in 7 mi SW 13.4 mph - - Rain Light Rain Showers
8:20 AM 42.8 °F 35.8 °F 41.0 °F 93% 29.83 in 6.2 mi SSW 13.8 mph - N/A   Mostly Cloudy
8:50 AM 42.8 °F 36.2 °F 41.0 °F 93% 29.83 in 6.2 mi SSW 12.7 mph - N/A   Scattered Clouds
9:00 AM 43 °F - 40 °F 83% 29.86 in 28 mi SSW 13.4 mph - - Rain Light Rain Showers
9:20 AM 42.8 °F 35.8 °F 41.0 °F 93% 29.86 in 6.2 mi SSW 13.8 mph - N/A   Scattered Clouds
9:50 AM 44.6 °F 37.8 °F 39.2 °F 81% 29.86 in 6.2 mi SW 15.0 mph - N/A Rain Light Rain Showers
10:20 AM 46.4 °F 40.7 °F 39.2 °F 76% 29.86 in 6.2 mi SSW 12.7 mph - N/A   Mostly Cloudy
10:50 AM 46.4 °F 40.1 °F 39.2 °F 76% 29.89 in 6.2 mi SSW 15.0 mph - N/A   Mostly Cloudy
11:00 AM 46 °F - 39 °F 70% 29.89 in 28 mi SSW 15.7 mph - - Rain Light Rain Showers
11:20 AM 46.4 °F 40.1 °F 39.2 °F 76% 29.89 in 6.2 mi SW 15.0 mph - N/A Rain Light Rain Showers
11:50 AM 48.2 °F - 39.2 °F 71% 29.89 in 6.2 mi SW 18.4 mph - N/A   Mostly Cloudy
12:00 PM 48 °F - 39 °F 61% 29.90 in 16 mi SW 17.9 mph - - Rain Light Rain Showers
12:20 PM 48.2 °F - 39.2 °F 71% 29.89 in 6.2 mi SW 17.3 mph - N/A   Mostly Cloudy
12:50 PM 48.2 °F - 39.2 °F 71% 29.89 in 6.2 mi SW 16.1 mph - N/A   Scattered Clouds
1:00 PM 48 °F - 39 °F 63% 29.90 in 37 mi SW 15.7 mph - - Rain Light Rain Showers
1:20 PM 48.2 °F - 39.2 °F 71% 29.89 in 6.2 mi SW 15.0 mph - N/A   Mostly Cloudy
1:50 PM 46.4 °F 41.5 °F 41.0 °F 81% 29.89 in 6.2 mi SW 10.4 mph - N/A   Scattered Clouds
2:00 PM 46 °F - 41 °F 77% 29.90 in 19 mi SW 11.2 mph - - Rain Light Rain Showers
2:20 PM 44.6 °F 37.4 °F 41.0 °F 87% 29.89 in 6.2 mi WSW 16.1 mph - N/A   Scattered Clouds
2:50 PM 44.6 °F 36.6 °F 39.2 °F 81% 29.86 in 5.6 mi West 19.6 mph 31.1 mph N/A Rain Rain Showers
3:00 PM 45 °F - 39 °F 73% 29.89 in 6 mi WSW 20.1 mph - - Rain Heavy Rain Showers
3:20 PM 46.4 °F 40.1 °F 41.0 °F 81% 29.89 in 6.2 mi SW 15.0 mph - N/A   Scattered Clouds
3:50 PM 46.4 °F 40.1 °F 41.0 °F 81% 29.89 in 6.2 mi SW 15.0 mph - N/A   Partly Cloudy
4:20 PM 46.4 °F 40.7 °F 41.0 °F 81% 29.89 in 6.2 mi SW 12.7 mph - N/A   Partly Cloudy
4:50 PM 46.4 °F 41.9 °F 41.0 °F 81% 29.89 in 6.2 mi SW 9.2 mph - N/A   Partly Cloudy
5:00 PM 46 °F - 41 °F 75% 29.90 in 31 mi SW 8.9 mph - -   Scattered Clouds
5:20 PM 46.4 °F 41.1 °F 39.2 °F 76% 29.89 in 6.2 mi SW 11.5 mph - N/A   Scattered Clouds
5:50 PM 46.4 °F 41.1 °F 39.2 °F 76% 29.89 in 6.2 mi SW 11.5 mph - N/A   Mostly Cloudy
6:00 PM 47 °F - 39 °F 65% 29.91 in 31 mi SW 11.2 mph - -   Mostly Cloudy
6:20 PM 44.6 °F 39.7 °F 39.2 °F 81% 29.92 in 6.2 mi SW 9.2 mph - N/A   Partly Cloudy
6:50 PM 44.6 °F 39.2 °F 39.2 °F 81% 29.92 in 6.2 mi SW 10.4 mph - N/A   Partly Cloudy
7:00 PM 45 °F - 39 °F 72% 29.93 in 37 mi SW 11.2 mph - - Rain Light Rain Showers
7:20 PM 44.6 °F 39.2 °F 37.4 °F 76% 29.92 in 6.2 mi SSW 10.4 mph 21.9 mph N/A   Partly Cloudy
7:50 PM 42.8 °F 37.5 °F 37.4 °F 81% 29.92 in 6.2 mi SSW 9.2 mph - N/A   Partly Cloudy
8:00 PM 42 °F - 37 °F 75% 29.93 in 37 mi SSW 8.9 mph - -   Scattered Clouds
8:20 PM 42.8 °F 37.5 °F 35.6 °F 76% 29.92 in 6.2 mi SW 9.2 mph - N/A   Partly Cloudy
8:50 PM 41.0 °F 35.8 °F 37.4 °F 87% 29.92 in - SSW 8.1 mph - N/A   Clear
9:00 PM 42 °F - 37 °F 75% 29.94 in 37 mi SSW 6.7 mph - -   Scattered Clouds
9:20 PM 41.0 °F 35.8 °F 37.4 °F 87% 29.92 in - SSW 8.1 mph - N/A   Clear
9:50 PM 39.2 °F 35.9 °F 35.6 °F 87% 29.92 in - SSW 4.6 mph - N/A   Clear
10:20 PM 39.2 °F 35.0 °F 37.4 °F 93% 29.92 in - SW 5.8 mph - N/A   Clear
10:50 PM 39.2 °F 37.0 °F 37.4 °F 93% 29.92 in - SSW 3.5 mph - N/A   Clear
11:00 PM 39 °F - 37 °F 88% 29.96 in 31 mi SSW 2.2 mph - -  
11:20 PM 37.4 °F 34.9 °F 35.6 °F 93% 29.95 in 6.2 mi SSE 3.5 mph - N/A Fog Patches of Fog
11:50 PM 35.6 °F 30.7 °F 35.6 °F 100% 29.95 in - SSE 5.8 mph - N/A   Clear